Total_Precipitation_Accumulation
0.08 0.13 0.15 0.19 0.16 0.18 0.27 0.34 0.25 0.28 0.25 0.18 0.13 0.13 0.13 0.14 0.17 0.33 0.40 0.34 0.33 0.50 0.90 1.26 1.40 1.37 1.19 0.97 0.85 0.82 0.79 0.68 0.59 0.44 0.37 0.37 0.39 0.42 0.37 0.28 0.22 0.17 0.13
0.20 0.26 0.23 0.28 0.21 0.20 0.30 0.39 0.32 0.40 0.27 0.21 0.16 0.13 0.14 0.13 0.13 0.20 0.25 0.28 0.38 0.54 0.74 1.06 1.29 1.35 1.26 1.04 0.85 0.77 0.78 0.77 0.70 0.51 0.42 0.41 0.44 0.46 0.44 0.37 0.28 0.20 0.16
0.33 0.36 0.34 0.33 0.36 0.39 0.50 0.49 0.46 0.48 0.36 0.28 0.24 0.24 0.21 0.19 0.17 0.22 0.26 0.32 0.36 0.42 0.56 0.78 1.05 1.17 1.15 1.04 0.88 0.84 0.83 0.84 0.86 0.68 0.50 0.43 0.44 0.47 0.45 0.42 0.34 0.24 0.15
0.44 0.54 0.45 0.45 0.60 0.63 0.67 0.74 0.67 0.66 0.67 0.53 0.41 0.31 0.26 0.25 0.23 0.26 0.31 0.38 0.37 0.27 0.39 0.65 0.77 0.81 0.95 1.06 1.04 1.11 1.12 1.04 1.03 0.87 0.64 0.52 0.50 0.51 0.48 0.44 0.36 0.24 0.13
0.61 0.81 0.74 0.77 0.83 0.96 0.93 0.89 0.97 1.03 0.93 0.82 0.56 0.45 0.31 0.32 0.32 0.30 0.31 0.34 0.34 0.31 0.29 0.38 0.60 0.64 0.82 1.08 1.21 1.33 1.42 1.40 1.28 1.10 0.85 0.70 0.67 0.62 0.54 0.48 0.40 0.25 0.15
0.89 1.12 1.00 1.06 1.21 1.36 1.37 1.36 1.38 1.30 1.15 1.06 0.72 0.52 0.38 0.30 0.29 0.30 0.30 0.32 0.32 0.29 0.28 0.32 0.34 0.38 0.48 0.70 0.94 1.19 1.45 1.68 1.65 1.36 1.20 1.09 1.00 0.85 0.64 0.51 0.41 0.31 0.23
1.07 1.39 1.28 1.52 1.69 1.70 1.70 1.61 1.64 1.48 1.31 1.31 1.06 0.71 0.39 0.24 0.21 0.23 0.25 0.27 0.28 0.33 0.38 0.46 0.50 0.55 0.52 0.53 0.59 0.77 1.17 1.64 1.82 1.68 1.65 1.60 1.49 1.25 0.87 0.63 0.42 0.31 0.27
1.31 1.46 1.72 1.83 1.91 1.90 1.88 1.83 1.79 1.56 1.36 1.41 1.34 1.08 0.67 0.42 0.29 0.27 0.34 0.37 0.40 0.40 0.38 0.44 0.54 0.65 0.58 0.53 0.65 0.58 0.89 1.38 1.69 1.87 2.08 2.17 2.04 1.57 1.09 0.79 0.51 0.37 0.33
1.51 1.64 1.80 1.91 1.83 1.79 1.75 1.82 1.76 1.59 1.42 1.40 1.47 1.37 1.01 0.71 0.47 0.34 0.41 0.50 0.62 0.60 0.46 0.39 0.37 0.32 0.31 0.43 0.74 0.73 0.71 0.84 1.06 1.59 2.12 2.48 2.32 1.63 1.13 0.89 0.71 0.51 0.39
1.42 1.52 1.59 1.71 1.74 1.73 1.59 1.55 1.58 1.59 1.49 1.35 1.44 1.46 1.36 1.12 0.87 0.53 0.38 0.41 0.52 0.58 0.55 0.44 0.38 0.30 0.27 0.38 0.58 0.61 0.51 0.41 0.41 0.77 1.35 1.73 1.75 1.36 1.06 0.94 0.88 0.69 0.49
1.38 1.36 1.41 1.55 1.60 1.55 1.47 1.53 1.60 1.57 1.43 1.29 1.31 1.37 1.45 1.41 1.22 0.92 0.59 0.45 0.43 0.44 0.51 0.45 0.34 0.27 0.26 0.36 0.47 0.42 0.33 0.26 0.25 0.31 0.51 0.80 1.00 0.99 0.89 0.90 0.93 0.82 0.65
1.38 1.30 1.32 1.41 1.44 1.40 1.35 1.38 1.44 1.42 1.33 1.32 1.31 1.29 1.28 1.26 1.27 1.23 0.92 0.70 0.53 0.33 0.33 0.34 0.34 0.33 0.34 0.35 0.29 0.27 0.24 0.18 0.15 0.16 0.21 0.32 0.46 0.57 0.66 0.78 0.87 0.83 0.75
1.43 1.35 1.27 1.18 1.14 1.15 1.22 1.33 1.34 1.35 1.37 1.37 1.31 1.29 1.23 1.15 1.21 1.21 1.03 0.80 0.63 0.36 0.34 0.32 0.34 0.34 0.32 0.34 0.30 0.24 0.18 0.13 0.10 0.10 0.11 0.13 0.21 0.31 0.42 0.56 0.69 0.74 0.74
1.44 1.31 1.13 1.04 1.02 1.06 1.14 1.25 1.38 1.35 1.39 1.39 1.31 1.22 1.11 1.07 1.09 1.10 1.06 0.99 0.80 0.65 0.64 0.54 0.36 0.31 0.30 0.28 0.26 0.20 0.13 0.10 0.07 0.07 0.07 0.08 0.12 0.18 0.26 0.39 0.52 0.59 0.62
1.19 1.13 1.05 1.00 0.96 1.00 1.04 1.06 1.17 1.15 1.17 1.19 1.24 1.12 0.98 0.96 0.97 0.99 1.03 1.04 0.92 0.78 0.81 0.75 0.47 0.30 0.26 0.24 0.22 0.14 0.12 0.09 0.06 0.04 0.04 0.05 0.07 0.11 0.18 0.25 0.35 0.44 0.48
1.07 1.02 1.00 0.98 0.93 0.90 0.91 0.92 0.98 1.04 0.96 0.97 1.10 1.04 0.95 0.91 0.91 0.91 0.94 0.98 1.01 0.95 0.86 0.80 0.62 0.37 0.31 0.28 0.24 0.18 0.15 0.09 0.06 0.04 0.03 0.03 0.05 0.07 0.11 0.17 0.25 0.32 0.36
0.96 0.97 0.95 0.90 0.79 0.73 0.70 0.71 0.76 0.86 0.86 0.82 0.86 0.84 0.82 0.82 0.84 0.83 0.82 0.82 0.94 1.04 0.97 0.99 0.86 0.67 0.49 0.37 0.29 0.24 0.19 0.14 0.10 0.04 0.03 0.03 0.04 0.06 0.09 0.14 0.20 0.28 0.32
0.73 0.73 0.73 0.77 0.80 0.77 0.70 0.69 0.70 0.70 0.73 0.75 0.79 0.82 0.83 0.86 0.84 0.75 0.74 0.78 0.91 1.05 1.11 1.23 1.30 1.03 0.73 0.50 0.43 0.32 0.20 0.13 0.14 0.07 0.04 0.03 0.03 0.04 0.06 0.11 0.17 0.26 0.33
0.63 0.62 0.61 0.62 0.65 0.74 0.82 0.82 0.79 0.80 0.83 0.76 0.78 0.82 0.80 0.76 0.73 0.67 0.69 0.75 0.82 0.92 1.00 1.09 1.24 1.05 0.86 0.63 0.61 0.48 0.34 0.32 0.20 0.13 0.06 0.03 0.03 0.03 0.04 0.08 0.15 0.22 0.31
0.65 0.61 0.56 0.57 0.59 0.60 0.68 0.80 0.84 0.80 0.75 0.70 0.69 0.67 0.62 0.59 0.58 0.55 0.55 0.61 0.67 0.71 0.76 0.82 0.94 0.99 1.02 0.95 0.89 0.78 0.67 0.56 0.43 0.29 0.23 0.10 0.06 0.04 0.04 0.06 0.11 0.19 0.28
0.60 0.59 0.51 0.48 0.54 0.58 0.59 0.60 0.65 0.64 0.58 0.57 0.58 0.53 0.42 0.43 0.43 0.39 0.38 0.47 0.52 0.58 0.63 0.69 0.82 0.95 1.03 1.07 1.01 0.99 0.90 0.83 0.69 0.61 0.63 0.45 0.35 0.26 0.18 0.13 0.12 0.16 0.24
0.47 0.46 0.41 0.39 0.39 0.41 0.45 0.43 0.41 0.41 0.38 0.36 0.38 0.39 0.35 0.30 0.27 0.27 0.23 0.24 0.28 0.36 0.49 0.65 0.79 0.95 1.00 0.98 1.10 1.09 1.06 1.02 0.95 0.88 0.89 0.89 0.84 0.71 0.54 0.35 0.26 0.20 0.20
0.38 0.35 0.33 0.30 0.27 0.25 0.23 0.24 0.27 0.30 0.30 0.25 0.23 0.25 0.24 0.21 0.16 0.13 0.14 0.18 0.18 0.16 0.20 0.41 0.58 0.65 0.66 0.64 0.84 1.04 1.03 1.04 1.13 1.06 1.05 1.12 1.09 0.99 0.76 0.57 0.41 0.28 0.23
0.32 0.31 0.28 0.25 0.23 0.21 0.19 0.18 0.18 0.18 0.20 0.19 0.15 0.14 0.16 0.16 0.11 0.07 0.08 0.12 0.08 0.06 0.07 0.15 0.20 0.21 0.25 0.34 0.50 0.76 0.98 0.98 1.07 1.11 1.12 1.27 1.26 1.20 1.01 0.78 0.55 0.34 0.27
0.24 0.23 0.24 0.24 0.20 0.17 0.14 0.12 0.14 0.17 0.15 0.12 0.09 0.10 0.10 0.08 0.07 0.04 0.06 0.10 0.07 0.03 0.01 0.02 0.04 0.06 0.10 0.13 0.21 0.37 0.60 0.90 1.18 1.24 1.15 1.29 1.35 1.38 1.41 1.16 0.85 0.60 0.41
0.24 0.18 0.20 0.22 0.17 0.15 0.11 0.07 0.07 0.11 0.13 0.10 0.06 0.05 0.05 0.03 0.03 0.02 0.03 0.05 0.05 0.03 0.02 0.03 0.04 0.04 0.06 0.08 0.08 0.17 0.29 0.53 0.83 1.02 1.05 1.17 1.41 1.65 1.79 1.54 1.13 0.82 0.64